event-id,visible,timestamp,location-long,location-lat,geolocator-rise,lat-lower,lat-upper,long-lower,long-upper,migration-stage-standard,sensor-type,individual-taxon-canonical-name,tag-local-identifier,individual-local-identifier,study-name
18618182090,true,2017-06-06 20:51:33.000,-3.725,50.599,false,50.599,50.599,-3.725,-3.725,"","solar-geolocator","Ficedula hypoleuca","BF894","Z135712","Geolocators reveal variation and sex-specific differences in the migratory strategies of a long-distance migrant"
18618182091,true,2017-06-07 03:54:20.000,-5.08749280612892,49.7831619373686,true,46.3905439553611,53.232201690678,-10.630305136932,0.746756431394684,"","solar-geolocator","Ficedula hypoleuca","BF894","Z135712","Geolocators reveal variation and sex-specific differences in the migratory strategies of a long-distance migrant"
18618182092,true,2017-06-07 20:50:52.000,-5.7165335187001,49.9238553590088,false,46.2506017481566,53.4505235352828,-12.088498542141,0.725394573018496,"","solar-geolocator","Ficedula hypoleuca","BF894","Z135712","Geolocators reveal variation and sex-specific differences in the migratory strategies of a long-distance migrant"
18618182093,true,2017-06-08 03:51:53.000,-5.67590233828408,50.0243806686867,true,46.2605585740366,53.7054456717294,-12.4341771048358,0.53505701146152,"","solar-geolocator","Ficedula hypoleuca","BF894","Z135712","Geolocators reveal variation and sex-specific differences in the migratory strategies of a long-distance migrant"
18618182094,true,2017-06-08 20:55:57.000,-4.06555008073719,51.3939897032633,false,48.1542698132353,54.1465340720462,-10.2663556510692,2.00563704837478,"","solar-geolocator","Ficedula hypoleuca","BF894","Z135712","Geolocators reveal variation and sex-specific differences in the migratory strategies of a long-distance migrant"
18618182095,true,2017-06-09 03:31:53.000,-3.94948542642185,51.5115127250869,true,48.1396936109865,54.4488289320663,-10.2365579550933,2.10815626603135,"","solar-geolocator","Ficedula hypoleuca","BF894","Z135712","Geolocators reveal variation and sex-specific differences in the migratory strategies of a long-distance migrant"
18618182096,true,2017-06-09 20:45:37.000,-3.12479301585305,50.5576356726885,false,47.2389994827751,53.8501791600201,-8.89678105680653,2.18051594424654,"","solar-geolocator","Ficedula hypoleuca","BF894","Z135712","Geolocators reveal variation and sex-specific differences in the migratory strategies of a long-distance migrant"
18618182097,true,2017-07-12 12:31:39.000,-3.15429725547522,50.6283877834515,true,50.5061024101203,50.846225188901,-3.57152948159007,-2.73394671155452,"breeding-grounds","solar-geolocator","Ficedula hypoleuca","BF894","Z135712","Geolocators reveal variation and sex-specific differences in the migratory strategies of a long-distance migrant"
18618182098,true,2017-08-14 05:22:06.000,-8.00815091157551,48.9050556451663,true,43.9530175292371,53.8702769557317,-13.8881343326648,-0.631095340615804,"","solar-geolocator","Ficedula hypoleuca","BF894","Z135712","Geolocators reveal variation and sex-specific differences in the migratory strategies of a long-distance migrant"
18618182099,true,2017-08-14 19:48:47.000,-5.25604146911123,48.9102054198857,false,42.8163887393487,54.1313088833231,-11.997083912313,0.640874939384062,"","solar-geolocator","Ficedula hypoleuca","BF894","Z135712","Geolocators reveal variation and sex-specific differences in the migratory strategies of a long-distance migrant"
18618182100,true,2017-08-15 05:02:27.000,-5.5459865183956,48.9033812532371,true,42.4949844426748,54.1866905470081,-11.6697937691359,0.475458471730493,"","solar-geolocator","Ficedula hypoleuca","BF894","Z135712","Geolocators reveal variation and sex-specific differences in the migratory strategies of a long-distance migrant"
18618182101,true,2017-08-15 19:51:11.000,-5.75303123096012,48.8964556701606,false,43.3126305243146,54.1503068413747,-11.618639962812,-0.0779315694117785,"","solar-geolocator","Ficedula hypoleuca","BF894","Z135712","Geolocators reveal variation and sex-specific differences in the migratory strategies of a long-distance migrant"
18618182102,true,2017-08-16 05:02:28.000,-5.42637608781399,48.7640976186895,true,42.9401760527885,54.038010222205,-10.9263323786664,0.819847475884531,"","solar-geolocator","Ficedula hypoleuca","BF894","Z135712","Geolocators reveal variation and sex-specific differences in the migratory strategies of a long-distance migrant"
18618182103,true,2017-08-16 19:31:27.000,-3.49543383961017,47.4683190652233,false,41.4100636743684,53.2369105630691,-10.2052173110134,2.02458887524041,"","solar-geolocator","Ficedula hypoleuca","BF894","Z135712","Geolocators reveal variation and sex-specific differences in the migratory strategies of a long-distance migrant"
18618182104,true,2017-08-17 05:07:07.000,-4.15860870491244,47.1545585190634,true,40.7493339309865,53.5419744346414,-9.69204618064102,1.77170473891119,"","solar-geolocator","Ficedula hypoleuca","BF894","Z135712","Geolocators reveal variation and sex-specific differences in the migratory strategies of a long-distance migrant"
18618182105,true,2017-08-17 19:26:12.000,-3.15941104829096,46.6962735452379,false,39.7408697980107,53.266801372978,-9.68597189350244,2.30675008773606,"","solar-geolocator","Ficedula hypoleuca","BF894","Z135712","Geolocators reveal variation and sex-specific differences in the migratory strategies of a long-distance migrant"
18618182106,true,2017-08-18 05:07:05.000,-4.05811890586454,47.013985058871,true,40.253690150747,53.4521286557544,-10.1051407689011,1.92542117276184,"","solar-geolocator","Ficedula hypoleuca","BF894","Z135712","Geolocators reveal variation and sex-specific differences in the migratory strategies of a long-distance migrant"
18618182107,true,2017-08-18 19:28:27.000,-2.51451180168491,47.7136735439536,false,40.9412320297235,53.4733544631964,-8.24652698134314,2.28710627657795,"","solar-geolocator","Ficedula hypoleuca","BF894","Z135712","Geolocators reveal variation and sex-specific differences in the migratory strategies of a long-distance migrant"
18618182108,true,2017-08-19 04:52:14.000,-1.49660243616736,47.8135819609423,true,41.0307178339847,53.8136071167569,-6.75991744231554,2.74769222196199,"","solar-geolocator","Ficedula hypoleuca","BF894","Z135712","Geolocators reveal variation and sex-specific differences in the migratory strategies of a long-distance migrant"
18618182109,true,2017-08-19 19:19:10.000,-2.08145730961799,46.5826717454106,false,40.1538580051099,52.8381039322204,-8.26439289449866,2.63220869299899,"","solar-geolocator","Ficedula hypoleuca","BF894","Z135712","Geolocators reveal variation and sex-specific differences in the migratory strategies of a long-distance migrant"
18618182110,true,2017-08-20 05:10:15.000,-3.49166278591276,46.4395631240413,true,39.5328928783501,52.9019740108812,-9.03171903611799,2.05674405817427,"","solar-geolocator","Ficedula hypoleuca","BF894","Z135712","Geolocators reveal variation and sex-specific differences in the migratory strategies of a long-distance migrant"
18618182111,true,2017-08-20 19:26:29.000,-4.32555329791263,46.3459620241387,false,39.1959334081751,53.0160433150053,-10.352137695579,1.37400641577616,"","solar-geolocator","Ficedula hypoleuca","BF894","Z135712","Geolocators reveal variation and sex-specific differences in the migratory strategies of a long-distance migrant"
18618182112,true,2017-08-21 05:22:31.000,-5.79849831640231,46.2584733364974,true,39.4227137351696,53.1842143300573,-11.4817577643516,0.678321479715962,"","solar-geolocator","Ficedula hypoleuca","BF894","Z135712","Geolocators reveal variation and sex-specific differences in the migratory strategies of a long-distance migrant"
18618182113,true,2017-08-21 19:36:44.000,-6.88315680577371,46.4104080452767,false,39.051672876576,53.2743019476201,-12.7147919632154,-1.15805619940797,"","solar-geolocator","Ficedula hypoleuca","BF894","Z135712","Geolocators reveal variation and sex-specific differences in the migratory strategies of a long-distance migrant"
18618182114,true,2017-08-22 05:25:16.000,-6.68737787203972,45.9801366963946,true,38.443045629842,52.749172110296,-12.297590462137,-0.866147264361773,"","solar-geolocator","Ficedula hypoleuca","BF894","Z135712","Geolocators reveal variation and sex-specific differences in the migratory strategies of a long-distance migrant"
18618182115,true,2017-08-22 19:34:11.000,-8.22201280639259,44.1908596167627,false,36.7460905018549,51.9044877643612,-14.5675896569063,-2.5053489419673,"","solar-geolocator","Ficedula hypoleuca","BF894","Z135712","Geolocators reveal variation and sex-specific differences in the migratory strategies of a long-distance migrant"
18618182116,true,2017-08-23 05:47:08.000,-8.79855685644728,43.013024474653,true,34.8308085625185,50.1109325734772,-14.5237571852076,-2.54138937428068,"","solar-geolocator","Ficedula hypoleuca","BF894","Z135712","Geolocators reveal variation and sex-specific differences in the migratory strategies of a long-distance migrant"
18618182117,true,2017-08-23 19:06:39.000,-6.07151861322859,41.2516042014334,false,33.607413578056,48.6680388037993,-13.4621320273083,0.0734670991856523,"","solar-geolocator","Ficedula hypoleuca","BF894","Z135712","Geolocators reveal variation and sex-specific differences in the migratory strategies of a long-distance migrant"
18618182118,true,2017-08-24 05:53:58.000,-8.86848201583606,41.0772929488673,true,33.8299473923046,47.8540297445579,-14.9167082368109,-1.58338082558215,"","solar-geolocator","Ficedula hypoleuca","BF894","Z135712","Geolocators reveal variation and sex-specific differences in the migratory strategies of a long-distance migrant"
18618182119,true,2017-08-31 12:35:50.000,-8.64690989067296,41.1366607840236,false,38.882616617708,43.2270605305564,-9.23539464426972,-7.9303736298495,"stopover","solar-geolocator","Ficedula hypoleuca","BF894","Z135712","Geolocators reveal variation and sex-specific differences in the migratory strategies of a long-distance migrant"
18618182120,true,2017-09-07 19:20:32.000,-12.0797859783898,42.6837854230247,false,35.2904567347761,49.7748248658238,-17.0643564542032,-7.59357538089938,"","solar-geolocator","Ficedula hypoleuca","BF894","Z135712","Geolocators reveal variation and sex-specific differences in the migratory strategies of a long-distance migrant"
18618182121,true,2017-09-08 06:07:19.000,-11.1742630941945,42.8807641550865,true,34.7587776604956,51.735692760843,-15.7845017190711,-6.22281167173968,"","solar-geolocator","Ficedula hypoleuca","BF894","Z135712","Geolocators reveal variation and sex-specific differences in the migratory strategies of a long-distance migrant"
18618182122,true,2017-09-08 19:28:38.000,-14.6230656009722,42.3767549691232,false,33.7323264892755,51.5172276683983,-19.376045173298,-10.0020590578428,"","solar-geolocator","Ficedula hypoleuca","BF894","Z135712","Geolocators reveal variation and sex-specific differences in the migratory strategies of a long-distance migrant"
18618182123,true,2017-09-09 06:35:25.000,-16.0558953829338,41.2516196936536,true,32.7942722877576,50.4112361955569,-20.1846005591225,-10.5945012820782,"","solar-geolocator","Ficedula hypoleuca","BF894","Z135712","Geolocators reveal variation and sex-specific differences in the migratory strategies of a long-distance migrant"
18618182124,true,2017-09-09 19:34:21.000,-16.4098870766125,39.8245972775433,false,30.3219907654231,48.7430160257968,-19.9422537074613,-12.2991719602675,"","solar-geolocator","Ficedula hypoleuca","BF894","Z135712","Geolocators reveal variation and sex-specific differences in the migratory strategies of a long-distance migrant"
18618182125,true,2017-09-10 06:17:25.000,-12.4168951449387,38.1038533854811,true,29.0362250004774,46.394643988418,-16.0091086771249,-8.44405892086652,"","solar-geolocator","Ficedula hypoleuca","BF894","Z135712","Geolocators reveal variation and sex-specific differences in the migratory strategies of a long-distance migrant"
18618182126,true,2017-09-10 19:09:21.000,-13.3041935000661,34.013861845336,false,25.975690686072,41.9154497582366,-18.4376091734824,-8.90645875733568,"","solar-geolocator","Ficedula hypoleuca","BF894","Z135712","Geolocators reveal variation and sex-specific differences in the migratory strategies of a long-distance migrant"
18618182127,true,2017-09-11 06:32:17.000,-12.7632723949296,30.329103575539,true,22.894938170186,36.6227728664804,-16.8675258653804,-7.72088631142068,"","solar-geolocator","Ficedula hypoleuca","BF894","Z135712","Geolocators reveal variation and sex-specific differences in the migratory strategies of a long-distance migrant"
18618182128,true,2017-09-15 00:43:12.000,-12.2894316924951,25.86212425035,false,21.5979125233642,28.1341290652753,-13.3298354420599,-11.1649742353609,"stopover","solar-geolocator","Ficedula hypoleuca","BF894","Z135712","Geolocators reveal variation and sex-specific differences in the migratory strategies of a long-distance migrant"
18618182129,true,2017-09-18 18:56:28.000,-13.3446153305676,22.2881937123872,false,15.3941086329906,30.5000077962122,-18.1608354493729,-9.71666547022824,"","solar-geolocator","Ficedula hypoleuca","BF894","Z135712","Geolocators reveal variation and sex-specific differences in the migratory strategies of a long-distance migrant"
18618182130,true,2017-09-19 06:39:25.000,-12.7294093545597,18.7323872788339,true,10.2894191956968,27.8151563904795,-16.750525356635,-8.20185473764924,"","solar-geolocator","Ficedula hypoleuca","BF894","Z135712","Geolocators reveal variation and sex-specific differences in the migratory strategies of a long-distance migrant"
18618182131,true,2017-09-19 18:51:45.000,-12.4556213830054,14.8533379906316,false,5.86036384274603,23.235161360308,-16.4795666300444,-9.1794166685656,"","solar-geolocator","Ficedula hypoleuca","BF894","Z135712","Geolocators reveal variation and sex-specific differences in the migratory strategies of a long-distance migrant"
18618182132,true,2017-09-20 06:22:30.000,-9.4578460948305,11.3856984130039,true,3.81246094300086,17.9494802143783,-12.3582804210486,-6.11170625720394,"","solar-geolocator","Ficedula hypoleuca","BF894","Z135712","Geolocators reveal variation and sex-specific differences in the migratory strategies of a long-distance migrant"
18618182133,true,2018-01-07 00:52:09.000,-11.7136245927426,7.21021095240863,false,7.00688215448966,7.60918193324464,-11.7652151334808,-11.6232570359401,"wintering-grounds","solar-geolocator","Ficedula hypoleuca","BF894","Z135712","Geolocators reveal variation and sex-specific differences in the migratory strategies of a long-distance migrant"
18618182134,true,2018-04-25 19:08:53.000,-11.9599107456068,15.2869464083142,false,10.0921506296399,20.4104009213402,-15.983846134709,-8.72946760558598,"","solar-geolocator","Ficedula hypoleuca","BF894","Z135712","Geolocators reveal variation and sex-specific differences in the migratory strategies of a long-distance migrant"
18618182135,true,2018-04-26 06:09:21.000,-10.1397426034279,20.8171503821845,true,14.7167973484741,26.9611977722911,-13.7758048420257,-5.8874696754673,"","solar-geolocator","Ficedula hypoleuca","BF894","Z135712","Geolocators reveal variation and sex-specific differences in the migratory strategies of a long-distance migrant"
18618182136,true,2018-04-26 19:18:36.000,-9.96510101867921,28.0048562566319,false,21.6641909784148,34.7814921927624,-13.8494412214323,-6.13985097761123,"","solar-geolocator","Ficedula hypoleuca","BF894","Z135712","Geolocators reveal variation and sex-specific differences in the migratory strategies of a long-distance migrant"
18618182137,true,2018-04-27 05:34:08.000,-6.19022688722736,31.028600090514,true,23.5439682652313,38.6111425375708,-10.5590486506437,-2.02855911172811,"","solar-geolocator","Ficedula hypoleuca","BF894","Z135712","Geolocators reveal variation and sex-specific differences in the migratory strategies of a long-distance migrant"
18618182138,true,2018-04-27 19:03:42.000,-5.36654330965654,34.3526708357877,false,27.1858885081901,41.5779009548379,-10.8704681184138,-0.421047920169751,"","solar-geolocator","Ficedula hypoleuca","BF894","Z135712","Geolocators reveal variation and sex-specific differences in the migratory strategies of a long-distance migrant"
18618182139,true,2018-04-28 05:29:11.000,-5.78234720839025,36.2269395052832,true,28.9671262963483,43.256024285785,-10.9266138021886,-0.0403902228047333,"","solar-geolocator","Ficedula hypoleuca","BF894","Z135712","Geolocators reveal variation and sex-specific differences in the migratory strategies of a long-distance migrant"
18618182140,true,2018-04-28 19:28:50.000,-7.80908387313831,39.6640998270815,false,32.9181710725265,45.706062843255,-13.3623071802468,-2.5754213386762,"","solar-geolocator","Ficedula hypoleuca","BF894","Z135712","Geolocators reveal variation and sex-specific differences in the migratory strategies of a long-distance migrant"
18618182141,true,2018-04-29 05:29:07.000,-8.2481993135578,40.7286150736356,true,33.6957168316348,47.2936171566469,-13.6267035959202,-1.90729861448774,"","solar-geolocator","Ficedula hypoleuca","BF894","Z135712","Geolocators reveal variation and sex-specific differences in the migratory strategies of a long-distance migrant"
18618182142,true,2018-04-29 19:33:52.000,-6.68590145839112,43.4448167155272,false,36.7433071706832,50.0936757664481,-12.3631278130459,-1.45005287666628,"","solar-geolocator","Ficedula hypoleuca","BF894","Z135712","Geolocators reveal variation and sex-specific differences in the migratory strategies of a long-distance migrant"
18618182143,true,2018-04-30 05:14:07.000,-6.94643119385365,44.4287599269981,true,38.4066080425553,50.6428537539454,-13.2732881087936,-0.810693933106819,"","solar-geolocator","Ficedula hypoleuca","BF894","Z135712","Geolocators reveal variation and sex-specific differences in the migratory strategies of a long-distance migrant"
18618182144,true,2018-04-30 19:28:46.000,-2.84508410105847,47.7703617134314,false,43.3603448734859,52.9217296471463,-9.11066675200587,2.49759360450536,"","solar-geolocator","Ficedula hypoleuca","BF894","Z135712","Geolocators reveal variation and sex-specific differences in the migratory strategies of a long-distance migrant"
18618182145,true,2018-05-03 05:14:30.000,-3.725,50.599,true,50.599,50.599,-3.725,-3.725,"breeding-grounds","solar-geolocator","Ficedula hypoleuca","BF894","Z135712","Geolocators reveal variation and sex-specific differences in the migratory strategies of a long-distance migrant"
18618229158,true,2017-06-27 12:13:29.000,-3.725,50.599,false,50.599,50.599,-3.725,-3.725,"breeding-grounds","solar-geolocator","Ficedula hypoleuca","BF900","Z286611","Geolocators reveal variation and sex-specific differences in the migratory strategies of a long-distance migrant"
18618229159,true,2017-07-23 20:29:32.000,-6.86651710210562,48.5774656049516,false,43.2785801377326,53.8032458852304,-14.2263028958157,0.59398036156414,"","solar-geolocator","Ficedula hypoleuca","BF900","Z286611","Geolocators reveal variation and sex-specific differences in the migratory strategies of a long-distance migrant"
18618229160,true,2017-07-24 04:45:56.000,-7.21151139847474,48.2422896198588,true,42.651960833795,53.3859521629355,-14.3705409902546,0.274077037418667,"","solar-geolocator","Ficedula hypoleuca","BF900","Z286611","Geolocators reveal variation and sex-specific differences in the migratory strategies of a long-distance migrant"
18618229161,true,2017-07-24 20:14:32.000,-3.28664465112291,48.939399543485,false,43.6977339882103,53.7571797062522,-9.90177290867504,2.23211617028672,"","solar-geolocator","Ficedula hypoleuca","BF900","Z286611","Geolocators reveal variation and sex-specific differences in the migratory strategies of a long-distance migrant"
18618229162,true,2017-07-25 04:17:23.000,-2.9790224646593,49.244907578459,true,43.8753026488756,53.6801311684888,-9.36050258911681,2.34433564399655,"","solar-geolocator","Ficedula hypoleuca","BF900","Z286611","Geolocators reveal variation and sex-specific differences in the migratory strategies of a long-distance migrant"
18618229163,true,2017-07-27 19:46:46.000,-1.41840283531409,46.9191629965794,false,43.4476969432831,48.647660030182,-3.77005211437834,0.540495938336235,"stopover","solar-geolocator","Ficedula hypoleuca","BF900","Z286611","Geolocators reveal variation and sex-specific differences in the migratory strategies of a long-distance migrant"
18618229164,true,2017-07-30 04:57:22.000,-4.19112957140902,46.0521643933277,true,40.9705215862004,51.21860209564,-10.7737618717526,1.98239571786059,"","solar-geolocator","Ficedula hypoleuca","BF900","Z286611","Geolocators reveal variation and sex-specific differences in the migratory strategies of a long-distance migrant"
18618229165,true,2017-07-30 20:19:31.000,-4.84675338229172,49.5833247341403,false,44.5147688219753,54.1778014681001,-11.4885160340056,1.206401082503,"","solar-geolocator","Ficedula hypoleuca","BF900","Z286611","Geolocators reveal variation and sex-specific differences in the migratory strategies of a long-distance migrant"
18618229166,true,2017-07-31 04:27:22.000,-4.3557234210313,49.9712671139801,true,44.9828048362594,54.4937412412846,-11.2488969679947,1.86269359407009,"","solar-geolocator","Ficedula hypoleuca","BF900","Z286611","Geolocators reveal variation and sex-specific differences in the migratory strategies of a long-distance migrant"
18618229167,true,2017-07-31 20:24:31.000,-6.7057217179153,49.7329407700976,false,44.5544272369728,54.3696515438423,-13.4993640948784,0.308709897283877,"","solar-geolocator","Ficedula hypoleuca","BF900","Z286611","Geolocators reveal variation and sex-specific differences in the migratory strategies of a long-distance migrant"
18618229168,true,2017-08-01 04:37:22.000,-5.89678308069514,49.444014659071,true,44.1676427503419,54.1118477235442,-12.4733059047297,0.461736951741792,"","solar-geolocator","Ficedula hypoleuca","BF900","Z286611","Geolocators reveal variation and sex-specific differences in the migratory strategies of a long-distance migrant"
18618229169,true,2017-08-01 19:59:31.000,-7.32532853250029,45.0911410145439,false,39.1766919048493,51.7293497274871,-14.6498212669833,-0.330106246810144,"","solar-geolocator","Ficedula hypoleuca","BF900","Z286611","Geolocators reveal variation and sex-specific differences in the migratory strategies of a long-distance migrant"
18618229170,true,2017-08-02 05:27:22.000,-8.87725056477642,43.9765971271115,true,37.2719733135522,50.9741604999985,-15.8044751088978,-1.40015423779873,"","solar-geolocator","Ficedula hypoleuca","BF900","Z286611","Geolocators reveal variation and sex-specific differences in the migratory strategies of a long-distance migrant"
18618229171,true,2017-08-02 19:49:31.000,-6.34128276985487,43.0396541493325,false,36.0755565503888,49.7494987592627,-13.4262739783695,0.0778877190780606,"","solar-geolocator","Ficedula hypoleuca","BF900","Z286611","Geolocators reveal variation and sex-specific differences in the migratory strategies of a long-distance migrant"
18618229172,true,2017-08-03 05:17:22.000,-6.4214809590561,43.085652567561,true,36.1015201080025,50.2719166351079,-13.1880566455674,0.632000770055014,"","solar-geolocator","Ficedula hypoleuca","BF900","Z286611","Geolocators reveal variation and sex-specific differences in the migratory strategies of a long-distance migrant"
18618229173,true,2017-08-03 19:29:31.000,-2.38151157749657,44.5571654643273,false,38.1015823708868,50.6678788590759,-9.03146994108386,2.33411536242913,"","solar-geolocator","Ficedula hypoleuca","BF900","Z286611","Geolocators reveal variation and sex-specific differences in the migratory strategies of a long-distance migrant"